CAPE
2398 2388 2565 2728 2707 2818 2915 2811 2917 2761 2950 2924 2943 2829 2550 2534 2850 2877 1738 1566 1947 1591 1698 1754 1600 1655 1683 1311 1719 2117 2071 1999 2004 2248 2002 1974 2030 2086 2310 2642 1770 1717 1597 1818 1998 1947 1984 1806 1840 1659 1658 1898 1771 1760 1563 1704 1784 1849 1772 1672 1534 1732 1620 1639 1655 1496 1454 1300 1244 1557 1444 1292 1438 1451 1403 1396 1316 1367 1342 1050 978 1147 1331 1164 1306
2429 2590 2407 2554 2702 2935 2981 2987 2855 2921 2852 2820 3151 2942 2514 2594 2782 2859 2300 2012 1554 1965 1696 1023 1036 1073 1151 960 1069 814 1693 1622 1883 1886 2026 2038 2197 2056 2150 2542 2923 2132 2038 2025 2015 1995 1922 2016 1794 1783 1828 1691 2028 1764 1763 1668 2106 1707 1385 1431 1700 1590 1672 1715 1784 1756 1699 1550 1713 1138 1520 1308 1162 1543 1473 1350 1572 1494 1423 1388 1342 1226 1308 1289 1062
2426 2740 2569 2465 2695 2922 2956 3019 2876 2780 3062 2985 3273 3090 2722 2572 2842 2690 2295 1808 1726 2003 2056 1216 1188 510 558 703 574 1114 1311 1482 1106 1459 1422 1932 2046 2296 2472 2446 2770 2150 2106 2037 1663 1826 1873 1926 1919 1980 1983 2026 2044 1682 1769 1875 1802 1774 1895 1690 1569 1801 1708 1639 1540 1790 1763 1738 1713 1696 1584 1304 1230 1437 1430 1643 1554 1694 1637 1535 1648 1605 1550 1517 1505
2498 2748 2456 2524 2746 2921 3000 3037 2806 2888 2984 2945 3120 3156 2918 2860 3333 1970 1449 1451 1364 1606 1918 1156 751 238 594 546 680 648 841 1086 509 456 1395 2026 2358 2344 2380 2302 2714 2432 2414 1926 1769 1593 1719 1929 2024 2004 1926 1933 2031 1883 1839 1633 1730 1492 2002 1686 1720 1588 1718 1848 1790 1586 1700 1695 1784 1817 1791 1662 1461 1442 1198 1373 1762 1869 1979 1986 1771 1724 1728 1676 1664
2689 2863 2708 2604 2896 3150 2986 3061 2939 2859 2890 3308 3560 3475 3099 2964 2761 2456 2137 1860 1522 1634 1450 831 351 352 289 309 254 534 1045 1050 876 656 604 1074 1841 2041 2258 2402 2867 2912 2436 2410 2309 2159 2149 2204 2084 1915 1776 1880 1876 1735 1870 1592 1830 1826 1588 1738 1513 1671 1908 1694 1800 1816 1586 1783 1756 1814 1838 1842 1702 1576 1388 1523 2033 1836 1830 1596 1624 1672 1829 1807 1719
2862 3000 2930 2705 3026 3142 3131 3174 3094 3248 3208 3505 3220 3142 2863 2896 2598 2392 2311 1980 1165 1747 1391 854 724 665 163 344 366 929 875 516 699 581 1016 983 1364 2016 2144 2330 3070 3221 2648 2318 2274 2370 2269 2068 2119 1924 1628 1727 1700 1892 1966 1725 1900 1922 1963 2043 1869 1646 1773 1866 1841 1845 1944 1890 1881 1804 1730 1762 1892 1808 1790 1814 1930 1936 1861 1794 1639 1680 1771 1844 1862
3008 2883 3004 3053 2960 3039 3184 3060 3221 3248 2862 3300 3185 3120 2884 2690 2988 2483 2412 1924 1882 1782 1450 885 485 318 661 711 368 1154 705 647 1116 946 1156 1466 1708 1492 2200 2189 2587 3214 2986 3243 2617 2360 2265 2134 2265 1916 1862 1776 1626 2073 1839 1958 2022 1834 1877 1885 1901 1759 1790 1798 1776 1772 1941 2025 1962 1905 2014 1878 1594 1433 1551 1623 1949 1963 1926 2017 1949 1760 1708 1634 1685
2961 3049 2905 3080 3002 2950 3060 3364 3580 3282 3202 3475 3375 3074 3135 2894 2864 2390 2247 1796 1305 1704 1357 797 767 436 795 629 804 1047 732 963 1040 967 1067 1602 1476 1878 2184 2476 2604 2888 2528 2744 2766 3030 2446 2520 2470 2240 1979 1855 2043 1997 2172 2260 1910 1911 1847 1829 2040 1721 1773 1732 1935 2058 2038 1596 1792 2015 1798 1707 1694 1257 1053 882 1145 2018 1976 1846 1776 1764 1715 1814 1916
2978 3084 2989 2974 3106 3072 3035 3348 3486 3161 3496 3814 3346 3148 3092 2593 3167 2657 2270 2037 1299 1485 1196 783 634 487 300 210 580 999 414 937 936 1167 1915 1762 1711 1176 1996 2601 2710 2750 2856 2715 2406 2562 3174 2909 2678 1984 2211 2250 2150 2056 2088 2037 1765 1680 1842 1829 1900 1910 1749 1760 1929 2065 1866 1852 1672 1488 1491 1501 1528 1382 1052 915 1149 1471 1700 1567 1315 1222 1391 1452 1626
2941 3146 3109 2992 3163 3145 3093 3478 3258 3406 3545 3508 3479 3305 3164 2874 2918 3017 2576 2406 2178 1586 1273 716 724 501 382 238 663 663 748 779 1436 2062 1970 1700 1791 1942 1935 2263 2246 2206 2099 2127 2004 2232 2355 2689 3037 2744 2469 2466 2438 2332 2284 2162 2068 1992 1643 1753 1855 1885 1953 1915 1769 1977 1921 2002 1913 1708 1575 1556 1432 1076 1280 1293 1253 1334 1431 1380 1203 1005 1015 1401 1552
3053 3265 3221 3169 3222 3326 3236 3422 3190 3439 3564 3266 3228 3266 3091 2978 2779 3049 2664 2384 2264 2006 1454 977 720 563 448 285 599 1094 856 791 1114 1116 1187 904 863 1541 1270 2182 1977 2385 2437 2197 2004 2114 2466 2342 2376 2569 2456 2389 2572 2606 2541 2028 1995 1977 2024 2041 1991 1953 1740 1688 1719 1874 1998 1940 1927 1740 1396 1389 1138 980 1106 1101 1242 1238 1474 1322 1306 1140 1092 1215 1195
3350 3462 3440 3452 3294 3335 3412 3419 3216 3288 3233 3076 3081 3075 3213 3156 3068 2716 2357 2238 2360 2086 1306 892 804 562 474 512 798 1102 924 830 507 505 802 1089 1122 1003 376 1256 1506 1826 1841 1948 1820 1729 2095 2286 2166 1892 2260 2498 2437 2320 2071 1762 1530 1700 1979 1913 1922 1892 1689 1814 1881 1590 1636 1528 1694 1431 1498 1499 1540 1182 1365 1142 1242 1217 1336 1385 1247 1166 1126 1038 1026
3424 3625 3539 3516 3391 3468 3496 3462 3354 3295 3337 3188 3153 2920 3206 3112 3072 2667 2380 2447 2039 1932 1419 840 675 570 356 206 592 784 566 1062 372 254 361 602 913 866 802 629 893 1556 1958 1878 1896 1806 1997 1910 1941 1950 1884 1937 1944 2327 1931 2160 2146 2132 2131 2240 2078 1954 2022 1935 1890 1782 1691 1667 1680 1480 1452 1384 1338 1352 1262 1298 1211 1234 1167 1172 1423 1203 1206 1210 1240
3345 3658 3646 3626 3554 3518 3577 3572 3561 3290 3348 3335 3363 3062 3059 2852 2464 2246 2462 1874 1742 1211 1250 685 532 490 374 134 249 474 1044 618 270 210 202 248 466 778 880 586 446 632 898 1418 1835 1886 1743 1998 2103 2042 1888 1895 1800 2238 2665 2298 2236 2021 2106 2161 1885 1898 1960 1692 1626 1718 1744 1708 1754 1666 1536 1474 1386 1331 1306 1315 1268 1113 1127 1171 1361 1398 1360 1426 1486
3382 3539 3653 3496 3517 3638 3654 3656 3526 3348 3416 3265 3099 3068 2982 2549 2486 1898 1859 1716 1494 1278 1322 782 616 257 474 82 85 19 366 260 230 262 187 198 344 509 774 568 1243 1626 1280 567 563 969 1308 1728 1938 1787 1714 1842 1724 1775 1691 1827 1912 2138 1875 1925 1926 1924 1826 1882 1869 1546 1674 1356 1500 1528 1422 1378 1194 1159 1161 1035 990 1128 1218 1216 1114 1089 1108 1286 1385
3324 3473 3608 3570 3579 3652 3564 3510 3551 3491 3422 3387 3342 2994 2777 2724 2276 2005 1876 1866 1540 1399 1141 1078 420 340 176 32 228 1 99 165 226 322 123 178 242 363 939 942 1183 1778 1114 410 248 628 1150 1581 2062 1816 1593 1765 1569 1633 1607 1472 1890 1956 2034 1724 1587 1778 1910 1910 1951 1852 1811 1747 1770 1690 1287 1196 1346 1266 1376 1158 1031 1040 1052 1210 1135 927 959 1054 1058
3248 3444 3495 3644 3637 3625 3607 3526 3542 3579 3374 3377 3063 2718 2760 2466 2386 2277 2133 1892 1599 1352 1021 778 646 528 248 98 30 8 21 422 42 416 94 128 264 411 998 1134 881 1647 1427 927 1379 1285 558 1120 1719 1888 1962 1914 1542 1268 1259 998 905 1338 1332 1379 1075 1363 1487 1932 1674 1621 1716 1647 1626 1503 1412 1388 1191 1222 1114 1100 1109 1178 1255 1258 1344 1341 1094 1127 1240
3166 3386 3413 3472 3763 3708 3679 3562 3551 3558 3219 2778 2884 2879 2650 2518 2400 2385 2254 2225 1822 1466 902 867 566 755 743 713 630 274 286 460 143 317 300 63 293 453 1086 914 1160 1506 1784 1229 1198 1189 863 646 1257 1438 1759 1642 1295 980 978 1078 1267 551 516 908 738 568 744 1046 1225 948 826 678 708 579 509 600 533 444 578 403 381 411 387 653 742 708 706 662 782
3012 3297 3443 3578 3747 3765 3699 3666 3529 3532 3157 2728 2632 2490 2118 2495 2413 2356 2324 2223 1740 1368 1072 757 837 808 590 383 531 586 216 237 155 216 160 373 160 224 378 680 862 1077 1085 934 474 590 907 832 672 554 1344 1668 1457 1212 810 628 1229 1214 1715 1677 1265 495 449 424 496 439 195 236 314 260 343 158 235 248 180 283 264 156 215 266 336 405 260 257 285
3014 3372 3586 3582 3717 3834 3782 3652 3556 3284 3072 2725 2554 2325 2442 2469 2334 2406 2339 2117 1805 1391 1137 416 260 557 552 552 562 408 353 233 242 168 283 198 436 120 109 319 652 601 646 539 216 268 1359 1158 898 853 987 1530 1766 1329 867 792 980 1048 824 1113 1025 673 505 285 389 480 534 100 90 220 163 87 58 86 58 29 22 12 33 86 88 92 88 99 106
3319 3502 3486 3530 3561 3748 3786 3555 3246 3068 2806 2761 2402 2514 2652 2494 2294 2229 2170 1988 1690 1341 975 663 167 212 664 681 442 400 205 214 354 235 222 122 131 238 390 185 228 483 791 738 601 996 797 812 926 612 565 1056 1631 1612 1128 878 1097 1331 1091 1256 1160 969 692 530 290 43 86 103 8 7 6 60 118 34 38 17 20 61 47 29 65 88 115 112 78
3470 3467 3548 3502 3559 3492 3452 3218 2910 2562 2698 2620 2662 2671 2640 2553 2403 2372 2337 1942 1604 1276 834 733 380 190 277 696 515 309 227 208 102 124 81 170 206 117 126 414 488 565 658 808 828 664 603 586 735 450 445 637 897 1252 1372 1494 1654 1207 1294 1035 1344 1121 966 978 848 390 24 84 186 113 52 38 29 21 4 9 22 34 92 104 85 105 160 131 93
3297 3304 3168 3172 3203 3165 3044 2843 2816 2764 2809 2713 2808 2642 2328 2453 2206 2349 2311 1899 1608 1303 953 810 728 841 558 592 356 124 162 60 174 63 74 178 73 14 10 14 20 170 764 347 838 894 1200 1205 594 192 776 494 718 932 1140 1075 1934 1800 1448 1136 1060 1061 925 1016 1182 1049 846 463 162 146 91 87 44 30 22 7 6 9 4 7 13 25 12 2 0
3490 3319 3132 2896 2920 2947 2963 2696 2820 2870 2825 2828 2751 2730 2582 2368 2246 2307 2102 1654 1580 1266 901 778 633 867 440 229 282 116 142 36 32 260 168 134 85 124 98 345 162 160 444 242 242 244 601 778 541 294 596 365 661 802 1066 1368 1351 1754 1734 1552 1374 1208 1062 830 973 1025 1119 778 371 182 114 57 21 35 40 40 38 6 0 0 0 0 0 0 0
3431 3263 3173 3105 3037 2932 3040 2938 2976 2856 2788 2811 2854 2776 2746 2432 2222 2236 1942 1539 1312 1185 1015 663 480 383 248 160 185 119 141 107 16 1 72 179 11 61 7 8 98 134 267 5 37 4 18 13 114 456 336 782 656 1058 914 876 742 1598 1370 1464 1278 1094 838 734 637 608 686 638 587 608 405 505 258 327 125 194 58 38 16 23 21 27 54 67 61
3219 3313 3235 3295 3217 3062 2775 2612 2722 2734 2773 2664 2561 2833 2746 2441 2474 2238 1842 1547 1305 1208 1005 512 668 644 436 446 267 188 155 181 51 60 29 17 11 0 202 98 6 0 408 149 508 1 1 32 38 592 781 595 365 766 894 299 368 1018 907 514 840 901 756 656 618 562 519 513 448 442 433 422 356 314 429 487 369 371 453 491 451 350 287 296 258
3286 3514 3546 3428 3347 3201 2894 2751 2770 2838 2821 2843 2755 2809 2645 2492 2369 2189 1795 1531 1352 1110 912 600 680 585 672 556 356 264 345 474 53 24 2 4 13 44 77 121 10 3 52 242 361 113 5 213 25 74 631 928 731 822 676 367 151 445 657 660 872 800 676 457 428 342 253 254 275 332 362 487 413 433 424 316 229 312 355 504 499 450 527 560 574
3407 3576 3608 3453 3481 3379 3106 2688 2552 2548 2749 2800 2794 2562 2556 2452 2268 2016 1879 1417 1264 1209 1105 859 601 700 620 540 711 89 444 260 146 159 128 87 105 166 104 38 21 67 86 85 75 111 119 148 368 356 609 675 824 801 602 143 102 280 309 560 1243 1428 690 299 281 276 252 138 116 197 198 215 301 321 345 426 514 553 638 594 564 631 632 698 766
3195 3268 3338 3404 3434 3327 3080 2748 2444 2656 2573 2719 2740 2685 2491 2327 2267 1960 1747 1214 1245 1296 1111 1059 934 473 529 638 522 391 651 699 468 278 420 540 315 234 90 33 45 10 31 29 50 0 244 0 4 1271 572 936 1235 893 1067 1212 880 519 980 992 1113 1380 986 264 98 100 101 103 90 70 65 72 114 204 319 367 424 512 559 559 724 893 904 970 957
2750 2844 3062 3248 3382 3213 3138 3008 2770 2561 2313 2238 2563 2627 2487 2309 2270 1868 1660 1522 1350 1369 1293 1125 1026 830 535 493 396 370 565 476 394 303 676 693 348 267 233 195 313 60 27 11 80 141 98 209 2 318 712 1242 1040 1044 919 850 629 802 1087 1174 724 805 497 73 56 62 75 79 75 66 61 52 45 48 76 155 244 290 363 472 537 604 612 699 719
2752 2932 3046 3004 3178 3112 3024 2930 2806 2591 2607 2277 2386 2492 2431 2340 2246 1795 1532 1546 1387 1379 1350 1092 924 833 675 510 593 422 606 315 354 422 637 663 564 367 344 357 423 60 137 152 24 480 9 130 148 19 265 703 356 484 588 636 743 857 983 1004 988 702 72 775 137 82 77 84 82 73 59 40 15 8 8 26 82 298 442 439 606 604 686 646 697
2454 2812 2862 2856 3062 2898 2782 2734 2818 2784 2588 2328 2223 2370 2302 2276 2228 1689 1378 1367 1268 1268 1189 925 696 740 680 554 739 589 680 432 372 424 770 692 676 586 433 397 430 256 261 272 139 95 402 45 235 560 327 439 656 547 464 490 1070 462 996 1101 1428 574 1348 884 742 104 106 70 66 55 29 8 0 0 1 14 56 134 379 488 622 682 588 526 480
2318 2581 2788 2861 3066 2997 2769 2876 2960 2966 2864 2592 2230 2268 2247 2298 2172 1711 1532 1431 1304 1266 1240 1137 745 748 704 626 715 623 749 531 464 342 318 666 716 554 680 608 444 456 360 291 269 327 800 245 292 294 656 578 534 582 403 310 630 1076 642 895 1166 786 752 776 762 590 82 45 30 20 13 6 1 0 2 8 38 147 283 332 268 145 83 118 152
2406 2473 2802 2826 3021 3054 2904 3060 3084 3121 3049 2848 2359 2266 2228 2257 2173 1654 1602 1555 1436 1338 1317 1295 1041 762 808 818 770 704 832 557 520 446 350 399 522 354 566 320 350 559 463 438 409 338 331 811 533 661 486 560 312 944 506 339 282 499 624 991 1046 889 970 831 658 787 511 153 104 18 12 4 0 0 0 0 0 21 45 76 24 2 0 0 0
2398 2406 2678 2702 3036 3126 2970 3112 3266 3250 3188 2881 2585 2566 2410 2227 2155 1634 1460 1556 1472 1384 1358 1269 1110 896 802 837 757 714 681 546 641 514 362 455 395 380 432 400 481 407 679 549 481 463 285 472 765 440 546 850 460 533 818 604 656 878 846 838 751 1040 1268 1201 793 408 626 271 137 130 116 95 0 0 0 0 0 0 0 0 0 0 0 0 0
2305 2474 2622 2744 3053 3189 3027 3118 3248 3222 3207 3076 2889 2670 2588 2401 2149 2012 1676 1562 1534 1453 1400 1288 1091 956 833 873 764 710 700 589 678 635 604 586 694 634 550 755 653 559 904 805 687 437 481 313 917 353 538 540 744 734 912 885 600 858 871 1159 1274 1257 1180 1069 1110 944 790 543 201 140 166 72 0 0 0 0 0 0 0 0 0 0 0 0 0
2216 2450 2596 2785 3003 3071 2891 2999 3096 3108 3052 2950 2816 2607 2578 2506 2360 2158 1954 1702 1602 1545 1470 1405 1060 1080 906 906 916 872 834 655 766 759 687 691 617 566 508 783 736 755 924 824 877 714 604 471 446 826 797 691 560 670 878 662 772 997 1373 1319 1153 937 877 688 429 563 492 238 103 52 46 5 2 4 0 0 0 0 0 0 0 0 0 0 0
2196 2272 2526 2610 2713 2906 2862 2869 2990 3056 3026 2900 2773 2681 2497 2422 2340 2173 2078 1861 1630 1584 1524 1456 1313 1108 1005 971 936 1008 896 766 773 837 866 675 624 620 578 754 788 811 964 954 902 1035 784 636 569 483 865 488 604 667 805 978 705 796 1255 1180 1048 1128 1143 851 553 407 398 439 553 867 604 281 165 1 1 2 0 0 0 0 0 0 0 0 0
2143 2207 2286 2528 2586 2769 2871 2850 2852 2998 3006 2884 2767 2707 2596 2471 2338 2198 2014 1917 1726 1596 1524 1380 1240 1114 959 952 949 983 916 838 762 933 977 714 732 634 686 761 885 932 869 869 1074 1069 1018 846 741 611 524 666 653 636 942 749 896 772 775 855 828 993 953 632 785 666 557 490 496 158 172 176 87 82 106 0 0 0 0 0 0 0 0 0 0
2153 2179 2212 2376 2551 2543 2745 2802 2802 2871 2917 2814 2740 2712 2636 2495 2326 2184 2008 1888 1773 1641 1502 1370 1185 934 914 880 808 870 874 887 806 930 960 855 818 732 470 442 780 900 769 894 975 846 905 844 652 470 610 585 740 698 831 664 710 801 692 583 565 602 971 1000 770 592 563 598 489 452 328 134 163 152 1 0 3 0 0 0 0 0 0 0 0
2205 2228 2236 2291 2473 2491 2552 2692 2703 2664 2655 2616 2582 2598 2596 2531 2351 2136 2021 1883 1777 1662 1547 1356 1190 993 964 864 769 740 808 701 556 688 740 747 735 652 640 599 815 940 930 870 920 815 835 700 656 682 592 569 522 642 683 786 781 814 1013 498 508 628 674 668 922 876 490 586 698 693 912 813 593 746 740 790 779 306 19 0 0 0 0 0 0
2400 2371 2384 2395 2420 2508 2508 2596 2620 2576 2482 2490 2094 1798 1914 2441 2374 2125 1994 1913 1796 1678 1600 1441 1118 1074 1056 994 892 755 588 584 648 703 766 817 853 886 845 780 650 768 887 930 871 832 679 614 475 363 306 275 297 577 508 582 888 889 568 592 553 584 556 564 626 1082 802 581 593 754 851 854 654 578 685 572 332 140 22 0 3 0 0 0 0
2488 2548 2533 2497 2405 2448 2498 2531 2549 2468 2408 2308 1735 1574 1518 1549 2106 2191 2018 1930 1798 1690 1607 1553 1352 1184 1174 1120 1038 997 940 842 795 857 896 939 992 1046 1023 889 711 544 823 872 756 712 766 546 395 442 272 300 353 448 502 336 426 457 484 620 599 288 283 547 562 578 820 595 504 514 655 903 705 574 420 259 98 65 44 43 0 0 0 0 0
2711 2693 2630 2594 2622 2466 2484 2518 2474 2460 2424 1912 1642 1562 1513 1484 1453 2050 2092 1994 1829 1718 1624 1528 1461 1250 1288 1257 1173 1088 1066 1053 1032 1036 1080 1048 1039 1102 1067 938 809 694 461 688 785 914 790 532 440 406 398 418 361 469 236 102 360 488 634 585 510 221 344 544 535 403 734 469 412 433 426 556 574 444 349 304 162 94 28 6 0 0 0 0 0
2908 2894 2765 2639 2649 2599 2521 2601 2490 2450 2400 1871 1637 1579 1560 1526 1513 1585 2068 2024 1924 1799 1692 1602 1558 1534 1468 1366 1308 1215 1181 1186 1244 1277 1287 1179 1168 1249 1185 937 840 688 477 324 374 746 748 880 448 496 520 326 325 346 395 444 538 508 334 170 262 410 446 364 248 194 481 378 396 270 126 206 179 92 62 77 102 126 43 0 0 0 0 0 0
2956 2929 2756 2730 2700 2742 2597 2564 2590 2551 2508 1966 1688 1620 1586 1571 1557 1537 1877 2045 1974 1926 1854 1759 1688 1702 1740 1510 1478 1370 1324 1384 1419 1451 1438 1244 1143 1158 1013 767 707 656 546 386 274 230 357 429 540 402 866 616 410 553 537 412 566 482 300 170 288 196 156 182 253 243 299 361 308 54 29 41 38 21 2 0 0 3 41 5 0 0 0 0 0
2950 2872 2857 2665 2541 2575 2443 2520 2527 2567 2532 1979 1750 1689 1651 1610 1571 1547 1546 1980 2018 2002 1953 1839 1779 1710 1711 1623 1570 1493 1465 1508 1543 1637 1525 1351 1273 1250 1106 878 774 584 376 312 292 168 140 313 434 191 340 474 442 582 534 264 258 264 138 193 295 165 141 133 88 181 165 220 104 28 6 0 0 0 0 0 0 0 0 0 0 0 0 0 0
2931 2892 2987 2738 2548 2601 2418 2410 2298 2274 2545 1988 1814 1727 1686 1662 1616 1571 1552 1788 1996 2007 1993 1867 1763 1736 1624 1689 1673 1615 1590 1624 1698 1790 1752 1559 1348 1147 897 686 596 537 457 421 326 115 562 160 100 53 93 513 351 575 306 153 144 99 46 25 54 23 49 33 4 0 0 1 30 2 1 0 0 0 0 0 0 0 0 0 0 0 0 0 0
3018 2926 2738 2583 2632 2773 2713 2454 2356 2460 2653 2331 1897 1775 1707 1679 1650 1629 1592 1648 1886 1768 1998 1927 1803 1655 1724 1771 1740 1718 1706 1781 1926 1989 1845 1530 1334 1119 864 748 634 572 540 414 272 0 64 0 0 0 0 0 0 0 0 0 396 62 21 4 4 0 0 0 0 0 0 0 0 0 0 0 0 0 0 0 0 0 0 0 0 0 0 0 0
2929 2842 2827 2728 2590 2545 2444 2589 2587 2566 2588 2445 1998 1844 1762 1701 1672 1659 1658 1656 1676 1725 1863 1682 1785 1733 1817 1849 1834 1791 1888 1998 2026 2078 1838 1600 1310 1109 977 777 640 565 466 367 336 214 0 0 0 0 0 0 0 0 0 0 0 0 3 8 0 0 0 0 0 0 0 0 0 0 0 0 0 0 0 0 0 0 0 0 0 0 0 0 0
3023 3004 2806 2634 2576 2604 2782 2746 2388 2374 2746 2664 2176 1950 1840 1792 1750 1726 1714 1713 1699 1885 1748 1732 1746 1806 1888 1908 1911 1991 2106 2148 2161 2105 1905 1714 1398 968 698 616 544 449 431 344 294 67 48 14 0 0 0 0 0 0 0 0 0 0 0 0 0 0 0 0 0 0 0 0 0 0 0 0 0 0 0 0 0 0 0 0 0 0 0 0 0
Wind_Speed
13 13 13 14 15 16 17 17 17 17 16 15 14 14 14 13 12 11 7 12 11 13 14 13 12 12 12 12 12 12 12 11 11 11 10 10 10 10 13 13 10 14 12 11 12 12 10 10 10 13 13 12 9 9 7 6 7 8 8 9 9 10 9 10 10 11 15 11 9 9 13 7 11 10 9 8 6 5 5 8 3 3 4 4 5
12 12 13 14 14 15 16 16 16 16 15 15 13 13 14 13 12 11 10 11 10 11 13 13 11 10 10 10 11 11 11 11 11 11 11 10 10 10 13 14 14 13 11 13 10 13 13 12 10 11 13 13 10 7 9 8 6 4 4 6 8 9 9 9 11 10 14 11 9 11 13 13 8 11 11 10 8 6 5 4 5 5 3 3 3
11 11 11 12 14 14 15 14 15 14 13 13 11 11 11 11 10 9 9 8 9 10 11 11 9 8 8 9 10 11 11 10 10 11 11 11 10 10 11 14 11 11 14 12 13 14 13 12 12 12 13 12 11 10 12 9 8 9 6 4 2 4 5 6 8 9 9 10 10 10 11 13 13 11 12 11 11 8 6 4 4 5 4 3 3
11 11 11 11 13 13 13 13 14 13 12 11 10 9 9 8 5 2 3 9 8 12 10 9 8 7 8 7 8 10 10 10 11 10 10 10 10 11 11 11 13 12 15 14 16 14 15 15 14 13 13 13 13 12 12 9 9 8 8 6 4 3 3 2 2 4 7 8 9 10 10 10 11 12 15 12 12 10 7 5 3 4 5 4 3
9 10 11 11 12 12 13 13 13 12 11 10 9 8 7 7 3 4 5 4 9 8 9 6 6 6 7 5 7 7 8 9 10 10 11 11 11 10 10 10 10 14 11 14 15 16 16 15 16 13 10 11 13 14 14 14 12 10 10 7 5 4 5 4 2 3 3 5 7 8 9 9 10 12 13 15 13 11 9 7 5 4 4 5 4
10 10 10 11 11 12 13 12 12 11 10 9 9 7 6 6 4 5 3 3 7 7 5 5 4 4 5 3 5 5 6 7 8 8 9 10 8 9 9 8 9 8 10 14 14 15 15 14 14 12 11 9 14 14 13 15 13 12 11 10 9 5 5 6 5 4 5 6 6 5 5 7 9 11 12 13 12 11 11 9 7 5 4 3 3
10 10 11 11 11 12 12 12 10 9 9 8 7 6 6 6 4 3 2 4 5 5 5 3 2 2 2 4 4 4 4 3 5 6 7 7 8 7 6 7 7 7 8 8 13 14 14 14 13 12 14 13 16 14 12 12 13 13 12 12 12 10 7 8 7 7 7 5 5 4 5 4 7 14 16 14 10 11 12 12 10 8 6 5 3
10 10 10 10 10 10 10 10 9 9 8 7 6 6 5 5 3 2 2 3 8 6 3 2 2 2 1 2 3 3 3 2 2 4 3 4 6 6 5 5 6 6 7 8 7 10 15 13 13 12 12 15 15 14 15 15 13 10 10 11 13 12 8 6 8 8 6 4 3 3 2 4 11 13 11 8 8 11 15 15 15 15 13 9 8
10 10 10 10 9 9 10 9 8 8 8 7 6 5 5 5 5 3 2 2 4 5 6 4 1 1 3 2 1 2 1 0 1 2 3 4 5 5 5 5 5 6 7 7 7 8 14 11 11 12 14 14 13 13 14 15 13 13 10 11 12 14 13 12 10 9 6 8 7 5 6 6 8 8 7 4 4 7 9 13 16 17 14 12 11
10 9 8 8 8 9 9 8 8 8 8 7 7 6 6 5 4 4 3 3 3 1 3 1 3 2 4 4 3 2 2 1 1 2 4 5 5 5 5 6 5 5 4 4 5 7 7 12 12 11 13 13 12 12 12 12 12 12 15 16 14 11 11 12 12 11 11 10 11 14 10 10 11 12 6 6 5 4 0 9 14 16 16 15 13
9 8 8 8 8 9 9 9 8 8 7 8 8 8 7 6 5 4 4 3 2 1 1 1 2 2 4 4 4 3 3 3 2 2 4 5 6 6 7 8 7 7 6 5 5 5 7 6 8 8 9 11 10 12 11 8 9 11 11 11 11 10 11 13 12 11 10 9 10 11 10 9 10 8 10 7 6 5 4 7 8 11 15 16 15
8 7 7 7 9 9 10 9 9 8 9 10 10 9 9 8 7 6 5 6 6 4 3 4 4 4 5 5 4 4 4 4 3 3 4 5 6 6 7 10 9 9 8 8 6 7 7 7 7 8 8 11 8 6 9 12 8 10 10 8 8 9 9 11 12 11 9 8 10 10 11 10 11 9 9 10 9 7 6 8 9 8 8 12 15
7 6 7 8 9 9 9 9 9 9 10 12 11 10 8 7 6 6 7 7 6 6 6 5 5 6 6 6 6 5 5 5 4 5 5 6 6 6 7 8 9 10 10 10 9 10 9 9 8 8 9 8 10 13 11 13 12 10 8 7 7 7 9 10 10 11 12 12 10 11 11 11 9 8 7 6 8 7 5 5 9 10 7 6 11
6 6 7 9 9 9 9 9 9 10 11 11 10 9 9 9 8 7 8 9 8 8 7 8 8 7 7 8 7 7 7 6 7 6 6 6 7 7 7 7 8 10 11 12 13 13 13 12 12 10 10 10 10 12 13 11 14 14 12 10 8 7 7 7 7 8 10 10 9 9 11 13 19 13 8 9 10 9 7 6 7 8 7 2 4
7 7 7 9 9 9 9 9 10 10 10 10 9 9 10 11 9 10 9 9 9 7 9 11 8 8 7 nan nan nan 10 9 8 8 7 7 7 7 6 7 8 10 11 12 13 13 14 15 15 13 12 12 12 13 13 14 16 18 18 16 13 12 11 9 10 10 10 12 10 12 12 12 15 18 16 14 12 9 6 6 8 7 6 2 4
6 8 7 8 8 8 8 9 9 10 10 9 8 9 9 9 10 11 10 9 9 9 10 11 10 11 9 nan 8 nan nan 11 11 10 8 8 7 7 8 7 9 10 11 12 14 14 16 16 16 15 14 14 14 15 17 17 19 21 21 20 18 17 16 16 17 17 17 18 19 18 18 18 19 18 16 13 10 11 12 10 11 11 9 7 5
5 7 8 8 8 8 9 9 9 9 9 8 7 8 8 9 10 10 10 10 9 9 11 13 13 10 8 nan nan nan nan 10 nan 11 nan 10 9 8 10 9 10 11 11 12 14 15 15 16 15 15 15 14 15 16 18 18 19 19 21 21 20 19 18 18 21 21 21 22 22 22 21 21 21 21 20 18 15 13 13 14 14 14 14 12 11
5 6 8 8 8 8 9 8 9 9 9 8 7 6 8 9 10 11 12 12 11 10 13 13 14 13 12 8 4 5 8 9 10 11 10 nan 8 9 10 11 12 12 12 12 13 14 15 14 15 15 15 14 14 15 17 18 19 19 18 19 17 19 19 19 19 20 21 22 22 22 22 23 22 23 22 20 18 16 15 16 17 17 16 17 17
5 6 7 9 8 8 8 8 8 8 9 8 7 7 7 9 10 11 12 11 12 13 14 14 13 14 14 12 10 8 7 9 10 9 11 11 8 10 12 13 13 14 13 12 13 13 13 14 14 14 14 14 14 14 15 17 18 19 19 19 16 17 19 20 20 21 22 23 22 22 22 22 23 23 23 22 21 19 18 18 18 18 18 18 18
4 6 7 9 9 8 8 8 8 8 9 8 7 6 6 8 11 12 12 13 14 15 15 14 15 15 14 14 13 10 9 9 9 10 9 11 13 12 12 14 15 15 13 13 13 13 13 14 15 15 16 16 15 15 16 16 17 18 20 20 18 18 19 19 20 20 21 23 nan 24 23 nan nan nan nan nan nan nan nan nan nan nan nan nan 19
6 7 8 9 9 9 8 8 8 8 8 8 6 6 8 10 11 13 15 15 16 16 14 14 15 15 14 14 12 12 12 11 11 11 11 12 12 15 14 14 13 14 14 13 12 13 13 13 13 13 15 17 18 17 17 17 18 18 18 21 19 19 20 21 20 nan nan 21 nan nan nan nan 25 nan nan nan nan nan nan nan nan nan 20 20 nan
7 8 9 10 10 9 8 8 8 8 8 7 5 6 7 9 12 15 16 16 15 15 16 14 14 13 14 14 14 13 12 13 14 14 nan 12 11 12 12 14 14 14 14 13 13 13 13 13 13 13 13 14 16 17 17 17 18 18 19 20 17 17 19 20 21 20 nan nan 20 21 nan nan nan nan nan nan nan nan nan 23 nan 22 22 21 nan
7 9 10 11 11 10 8 7 6 6 8 6 5 5 7 9 12 15 15 16 15 15 15 14 13 13 13 13 13 13 12 nan 13 nan nan 14 nan nan nan nan nan 12 14 13 13 14 15 15 14 14 15 14 15 14 15 16 18 18 18 18 18 17 17 17 17 18 19 20 20 20 nan nan nan nan nan nan nan nan nan nan nan nan nan nan nan
8 9 10 12 11 11 9 7 5 6 7 6 4 4 6 8 11 12 14 15 14 14 14 13 14 12 13 14 14 13 13 nan nan 13 12 11 nan 9 nan 11 10 11 13 14 16 16 17 17 17 16 16 16 16 15 14 15 17 21 18 20 20 20 19 19 19 18 18 19 19 19 19 nan nan nan nan nan nan nan nan nan nan nan nan nan nan
9 9 10 12 12 12 11 8 6 7 7 5 4 4 5 8 9 12 13 14 14 15 14 15 15 14 15 15 15 16 16 16 nan nan nan 12 nan nan nan nan nan 13 15 nan nan nan nan nan 18 18 18 18 17 17 16 15 14 19 20 17 22 21 22 21 21 21 21 21 21 21 22 22 21 22 23 24 nan nan nan nan nan nan nan nan nan
9 9 10 12 12 12 12 10 8 8 8 6 4 4 6 7 8 11 14 13 13 15 14 16 16 16 15 15 16 17 17 18 nan nan nan nan nan nan 13 nan nan nan 15 16 17 nan nan nan nan 19 19 18 18 18 17 15 15 21 21 17 20 24 23 23 23 23 23 23 23 22 22 22 22 22 23 24 24 24 24 24 24 23 23 22 22
10 10 12 12 12 12 13 11 10 9 8 6 4 4 5 7 8 10 11 11 12 13 13 16 15 16 16 16 16 16 17 17 nan nan nan nan nan nan nan 15 nan nan nan 17 18 19 nan 19 nan nan 20 20 20 20 19 18 17 21 24 21 19 24 26 26 26 26 25 25 24 24 23 23 23 23 24 24 24 24 25 25 24 24 23 23 23
10 11 12 12 12 12 13 12 11 9 8 7 5 4 6 7 8 9 11 9 11 12 13 15 16 17 18 17 17 nan 17 17 17 16 16 nan 14 14 15 nan nan nan nan nan nan 17 19 18 19 18 19 19 20 20 21 21 20 23 25 23 24 25 30 29 28 28 27 26 26 26 25 24 24 24 24 25 26 27 27 27 26 25 24 24 24
12 11 11 12 12 12 12 12 12 10 9 7 6 6 7 7 7 8 9 10 10 12 14 15 17 19 19 21 20 18 17 17 17 16 15 14 13 13 nan nan nan nan nan nan nan nan 18 nan nan 20 18 20 20 22 23 22 23 23 24 26 27 27 31 31 nan 28 27 26 nan nan nan nan 24 24 24 24 25 26 27 28 28 27 27 26 26
13 12 11 12 12 12 11 11 12 12 10 7 7 7 8 6 7 7 8 9 10 11 14 16 18 19 21 21 21 19 18 18 19 19 18 17 15 14 14 13 13 nan nan nan nan 14 nan 17 nan 16 19 20 21 23 22 23 26 24 27 28 29 30 31 nan nan nan nan nan nan nan nan nan nan nan nan 25 25 26 27 28 29 29 29 28 28
15 14 13 12 13 12 10 11 11 12 11 8 7 8 9 8 7 6 7 8 10 12 14 16 18 20 22 22 21 19 19 19 20 21 21 19 17 16 16 16 15 nan 14 15 nan 16 nan 15 15 nan 18 20 20 20 21 22 26 26 28 29 30 32 nan 32 34 nan nan nan nan nan nan nan nan nan nan nan nan 28 28 29 29 29 29 29 29
16 15 14 13 13 12 11 11 12 13 12 9 9 9 10 9 7 6 7 10 11 13 15 17 18 20 21 22 22 21 21 21 22 23 22 21 19 18 17 18 18 18 17 17 17 nan 18 nan 13 14 15 18 19 19 20 22 26 28 28 29 31 34 33 33 40 38 36 nan nan nan nan nan nan nan nan nan nan 29 29 29 30 30 30 30 30
17 15 14 14 14 13 12 12 12 13 14 11 9 10 11 11 8 8 8 11 12 13 14 17 20 21 22 22 23 23 23 23 23 24 23 23 21 19 19 19 19 20 20 20 19 18 19 20 17 16 18 18 20 21 21 22 25 28 29 29 31 31 31 32 34 41 nan nan nan nan nan nan nan nan nan nan nan 30 31 31 32 32 nan 33 32
18 16 15 15 15 14 12 12 12 13 14 14 11 11 14 12 10 9 8 11 13 13 15 18 21 22 23 23 23 24 24 25 25 25 24 23 23 22 22 22 21 21 22 21 21 20 19 23 22 22 20 22 20 22 22 22 23 26 28 31 32 32 32 32 33 35 43 38 37 nan nan nan nan nan nan nan nan nan nan nan nan nan nan nan nan
18 16 15 15 16 15 13 13 14 14 14 14 12 14 15 14 11 10 9 11 14 15 16 19 22 24 24 24 24 24 24 25 26 26 25 25 24 24 25 24 23 22 23 23 21 21 21 22 24 22 23 24 24 23 25 26 26 27 28 31 32 34 35 35 34 35 43 40 38 37 36 nan nan nan nan nan nan nan nan nan nan nan nan nan nan
20 18 17 16 16 15 14 14 15 14 14 14 14 14 15 14 12 11 10 11 13 15 17 20 23 25 25 24 24 25 26 26 27 27 26 25 25 25 26 26 25 23 23 23 22 20 21 22 26 26 26 25 27 28 28 29 29 30 31 33 36 36 37 38 38 37 40 41 38 37 37 nan nan nan nan nan nan nan nan nan nan nan nan nan nan
20 21 19 17 16 15 14 13 15 15 15 14 14 14 15 14 12 12 11 12 13 15 17 20 24 26 26 25 24 25 26 26 27 26 26 27 26 26 26 26 25 24 23 23 22 22 21 22 24 27 28 29 29 29 31 31 33 34 35 36 38 39 39 39 39 40 40 40 38 nan nan nan nan nan nan nan nan nan nan nan nan nan nan nan nan
21 21 20 18 17 15 14 14 16 16 16 15 14 15 15 14 13 12 11 12 13 15 18 21 24 27 26 25 25 26 26 27 26 26 27 29 28 27 27 27 26 25 25 24 23 23 23 22 23 24 29 29 30 32 34 34 33 34 37 40 41 43 42 40 41 42 42 42 41 43 46 45 46 nan nan nan nan nan nan nan nan nan nan nan nan
21 22 21 19 18 16 15 16 17 18 17 16 15 16 15 14 13 13 12 12 13 15 17 21 24 26 26 26 26 26 27 27 27 28 30 31 29 28 28 27 26 26 26 25 25 25 25 24 24 25 26 29 30 31 35 36 36 37 38 39 39 43 45 42 42 45 45 44 43 45 41 40 nan nan 39 nan nan nan nan nan nan nan nan nan nan
18 18 19 20 19 18 17 17 18 19 19 17 16 16 16 14 14 14 13 12 13 15 17 20 23 25 26 26 27 27 27 27 29 30 33 29 26 27 26 25 25 26 26 26 26 26 25 26 26 26 28 29 31 33 36 38 39 40 42 41 40 40 43 45 45 45 45 44 41 41 46 45 43 42 nan nan nan nan nan nan nan nan nan nan nan
20 20 17 16 16 17 17 18 19 20 19 16 16 18 16 14 14 14 13 12 13 15 17 19 22 24 25 25 26 27 28 29 32 30 30 28 26 27 27 26 26 27 27 27 26 26 26 26 26 28 28 30 32 34 37 39 41 40 45 45 43 43 43 43 45 47 44 42 40 38 37 38 37 36 35 36 37 37 nan nan nan nan nan nan nan
22 20 18 16 15 14 15 16 18 19 19 17 17 19 17 16 16 16 15 14 14 15 17 19 22 24 24 24 24 28 28 29 30 31 31 31 29 26 26 25 26 27 28 28 27 26 26 27 28 28 28 30 33 35 36 38 42 45 46 47 46 45 44 43 42 44 45 41 38 35 34 36 36 35 35 34 35 36 nan nan nan nan nan nan nan
23 21 20 18 17 15 15 16 17 18 18 17 20 20 17 17 18 18 17 16 16 17 18 20 22 23 23 23 22 26 27 26 28 32 33 33 31 29 26 26 26 26 28 28 26 26 27 28 29 29 29 30 32 35 38 39 42 45 44 46 46 45 44 42 39 41 44 42 38 34 33 34 35 33 33 32 nan nan nan nan nan nan nan nan nan
22 21 20 17 15 15 14 15 15 16 17 18 22 20 19 19 19 19 19 18 18 18 18 20 21 22 23 23 23 23 26 27 28 30 31 32 31 30 28 27 27 27 27 27 27 28 29 29 30 30 31 33 33 37 39 41 42 45 46 47 47 45 43 41 39 37 43 42 36 34 31 33 34 32 32 33 34 nan nan nan nan nan nan nan nan
20 20 20 18 16 15 14 15 15 15 14 21 23 21 20 21 21 19 20 19 19 19 19 21 22 23 24 23 22 23 25 31 29 29 30 31 31 30 28 28 28 29 29 28 27 27 30 31 30 31 33 33 36 38 41 43 46 45 45 46 46 46 45 42 39 38 40 39 37 33 30 31 32 nan nan nan 33 34 nan nan nan nan nan nan nan
19 19 20 20 18 17 16 14 13 13 12 21 25 23 23 24 24 23 20 21 20 20 21 23 23 23 24 24 23 24 26 31 30 31 31 31 31 29 29 29 30 32 32 31 31 30 30 31 32 33 36 39 39 41 45 46 46 45 46 45 46 45 43 41 38 36 36 39 36 nan nan nan nan nan nan nan nan nan nan nan nan nan nan nan nan
20 19 19 19 19 19 18 16 12 11 12 21 26 25 25 27 27 26 23 22 22 22 23 23 24 24 24 23 23 25 29 31 32 33 31 32 32 31 31 32 34 35 35 35 35 34 35 34 34 34 37 40 41 43 46 45 45 45 45 44 45 44 42 39 nan 36 34 37 36 nan nan nan nan nan nan nan nan nan nan nan nan nan nan nan nan
20 19 19 18 18 18 18 17 15 12 12 21 26 27 28 29 32 29 26 23 21 24 23 24 25 25 25 25 24 26 30 32 36 38 33 31 32 33 35 35 37 38 38 37 36 35 34 34 34 nan nan 41 43 43 44 44 46 nan nan nan nan nan nan nan nan nan nan nan nan nan nan nan nan nan nan nan nan nan nan nan nan nan nan nan nan
22 22 20 20 17 16 17 17 17 14 12 21 27 29 30 33 34 29 28 25 20 20 23 25 26 27 26 25 26 28 31 32 39 41 36 34 33 35 36 37 39 40 41 40 38 nan nan nan nan nan nan nan nan nan nan nan 43 nan nan nan nan nan nan nan nan nan nan nan nan nan nan nan nan nan nan nan nan nan nan nan nan nan nan nan nan
22 21 21 19 18 17 17 17 18 16 14 21 30 31 33 36 34 31 31 28 22 21 21 23 26 27 27 29 28 30 32 34 42 40 37 36 34 37 37 39 41 42 43 42 39 37 nan nan nan nan nan nan nan nan nan nan nan nan nan nan nan nan nan nan nan nan nan nan nan nan nan nan nan nan nan nan nan nan nan nan nan nan nan nan nan
26 27 26 22 19 18 18 18 20 19 17 24 33 34 34 36 34 33 33 31 26 24 24 24 25 25 27 29 31 32 34 38 44 40 39 37 35 38 39 40 42 44 44 45 42 nan nan nan nan nan nan nan nan nan nan nan nan nan nan nan nan nan nan nan nan nan nan nan nan nan nan nan nan nan nan nan nan nan nan nan nan nan nan nan nan
Wind_Direction
117 112 108 104 100 98 96 95 93 91 89 86 86 88 86 87 89 91 87 86 86 90 84 73 69 61 60 59 53 52 54 51 52 52 57 55 49 35 25 36 28 50 47 42 38 32 31 35 35 34 41 54 44 37 39 7 349 326 316 306 299 295 291 289 288 289 276 277 279 301 289 296 301 301 300 298 297 298 309 308 336 293 299 300 306
115 111 105 101 98 97 96 94 93 92 88 86 84 84 84 87 91 93 71 71 82 70 93 89 81 73 63 60 54 54 50 51 47 47 48 49 44 38 26 39 41 30 35 40 35 40 36 32 32 37 42 45 44 45 59 45 19 348 358 324 306 297 295 295 294 291 298 297 302 299 303 302 288 296 297 298 295 291 285 277 287 286 272 277 287
113 109 105 100 98 97 97 97 96 92 90 88 84 80 82 84 92 99 107 102 91 88 80 87 81 72 68 64 59 56 54 51 51 44 45 45 41 38 26 32 31 35 39 38 23 34 32 37 31 37 37 35 33 23 40 46 40 21 21 337 352 297 285 296 303 303 306 309 306 299 299 299 305 300 287 286 287 281 269 264 275 281 284 276 268
107 105 102 100 98 98 98 98 98 95 89 88 83 76 77 83 85 134 87 92 102 103 88 91 82 74 67 60 58 60 55 54 55 48 49 44 41 34 32 21 24 26 31 17 28 34 41 41 39 39 39 37 30 28 23 25 42 36 20 12 7 25 293 224 272 316 322 317 312 306 302 297 289 284 280 273 272 274 276 269 274 280 286 295 307
104 102 103 102 99 98 96 93 91 88 84 81 77 69 66 71 57 36 51 85 95 77 90 92 87 86 84 65 65 64 64 62 64 59 57 50 40 38 32 23 21 17 3 26 25 32 36 39 41 36 49 41 36 33 21 18 28 26 24 6 19 9 343 10 324 348 12 353 336 323 309 294 281 275 271 274 266 265 269 274 268 269 294 314 328
105 104 104 102 96 92 90 88 84 81 76 67 63 56 55 61 38 66 60 88 105 111 110 87 77 85 93 87 70 76 75 71 72 71 61 63 53 38 30 25 20 24 6 15 20 21 29 34 39 29 33 44 52 38 33 26 15 23 17 4 2 28 19 12 23 32 27 9 357 356 324 297 278 266 259 257 257 258 258 259 261 263 258 267 298
105 106 101 97 92 87 81 78 73 69 64 52 51 45 40 45 33 65 116 107 115 126 120 119 78 73 110 110 93 84 82 79 71 63 55 58 60 41 24 26 19 13 21 17 7 19 22 24 32 29 14 19 38 32 32 31 27 15 16 11 360 1 19 28 23 33 39 30 7 358 336 307 268 236 224 222 236 244 244 247 248 245 236 232 238
107 101 99 91 86 80 72 65 57 50 44 36 30 29 19 22 357 9 86 173 142 137 150 129 93 15 303 96 92 92 85 82 52 47 25 34 41 30 12 13 16 11 12 20 13 355 12 19 23 23 17 23 33 28 27 31 23 10 25 25 357 1 6 22 22 18 18 12 15 355 307 329 287 283 265 240 196 230 244 253 256 257 255 251 246
106 98 94 85 76 68 62 53 41 35 25 16 14 12 12 3 336 347 34 7 77 116 176 166 145 293 309 347 34 81 118 163 12 354 336 357 10 11 352 343 350 358 11 9 8 1 354 9 18 13 21 17 20 24 28 27 20 19 20 24 31 7 360 13 13 4 348 351 344 356 347 308 292 317 306 286 195 190 237 253 259 258 256 249 242
102 95 88 78 67 60 56 41 33 23 16 8 6 360 2 3 3 355 15 46 74 324 45 132 205 272 315 328 334 348 295 272 298 328 328 328 339 336 325 320 337 342 359 358 354 351 352 347 359 7 7 12 7 8 23 29 20 10 7 28 26 13 7 18 19 4 357 355 345 338 351 335 317 301 7 15 17 49 197 255 257 259 256 250 244
100 86 78 65 56 49 47 38 29 21 14 16 13 8 6 5 27 7 358 23 51 53 272 235 259 288 324 319 324 318 307 306 332 320 312 311 313 322 317 317 321 327 326 335 330 332 330 335 342 346 344 349 9 5 6 12 18 14 22 19 17 19 24 29 32 18 5 7 6 346 326 309 297 340 22 13 26 30 1 311 294 279 261 248 242
96 79 65 54 50 45 40 33 28 27 27 30 27 23 23 26 30 19 33 30 17 6 7 14 343 331 312 315 315 304 302 304 322 313 306 306 305 314 314 313 318 315 314 315 307 304 307 313 325 328 330 330 341 338 332 317 347 21 7 9 17 16 26 32 32 22 7 23 30 346 320 327 320 349 1 1 8 14 9 342 333 325 282 243 231
91 70 56 44 42 43 37 32 30 34 36 41 40 44 38 42 36 37 53 50 43 24 24 30 7 349 333 328 324 317 324 313 315 318 319 310 309 317 315 315 313 311 311 307 303 301 303 304 304 307 308 312 322 313 318 324 330 332 330 339 344 356 9 15 13 8 6 11 21 350 345 337 312 330 353 345 345 353 345 339 345 345 328 244 221
86 62 49 37 36 39 35 35 34 40 40 41 37 38 44 47 47 57 47 59 52 48 19 16 11 20 360 350 347 342 333 339 338 326 331 330 330 333 326 323 309 306 307 308 309 310 306 302 300 299 301 305 305 308 311 322 313 307 310 317 322 324 330 337 335 333 342 348 353 357 340 343 329 335 354 357 345 352 1 349 347 346 346 317 211
75 57 46 42 39 39 37 37 40 39 36 38 38 41 48 55 42 60 59 46 52 30 24 29 19 351 343 nan nan nan 340 348 343 337 337 342 346 351 338 330 306 304 310 314 312 311 306 305 304 305 304 306 303 299 299 296 292 294 291 292 291 291 293 294 303 308 304 305 313 306 313 309 311 322 334 344 343 329 323 330 325 318 320 279 206
64 53 43 37 37 40 39 36 36 34 36 38 35 41 41 45 54 55 53 58 42 30 19 11 15 349 0 nan 337 nan nan 348 346 335 336 336 345 350 335 331 316 309 319 319 309 308 308 308 309 310 311 311 307 303 300 295 293 294 292 290 283 281 283 290 294 292 288 289 290 292 295 294 297 301 304 324 334 337 344 332 305 297 297 287 247
60 47 41 36 36 38 36 35 33 27 28 35 41 42 37 47 50 50 41 51 52 29 19 13 12 14 358 nan nan nan nan 325 nan 336 nan 339 328 335 327 333 329 322 324 317 312 313 313 311 313 315 316 316 310 305 302 300 299 294 293 286 279 277 276 276 283 285 285 283 285 287 285 284 284 286 288 289 294 301 303 300 292 288 287 279 267
43 41 33 30 28 28 31 31 28 22 19 42 43 33 38 42 38 44 44 39 49 35 24 11 15 14 19 13 351 331 338 331 351 347 336 nan 334 331 330 338 335 337 339 336 328 323 321 320 321 323 322 321 315 309 305 303 303 303 299 293 282 276 275 277 281 285 285 285 284 283 283 284 283 283 284 284 286 284 283 284 285 285 282 275 268
32 25 18 19 19 17 23 27 23 19 13 29 34 46 51 42 34 35 37 27 21 32 26 18 5 18 20 23 20 16 0 351 357 346 356 343 341 342 340 343 347 353 355 354 343 339 332 331 331 329 329 331 328 321 318 310 307 305 307 303 299 283 277 277 278 283 286 288 288 286 284 283 283 282 282 284 283 282 282 281 281 282 279 277 273
15 3 2 6 6 8 15 21 22 19 11 17 37 56 49 42 34 32 32 29 24 27 25 16 15 13 15 17 15 1 359 10 7 7 359 350 343 344 344 347 354 2 3 0 358 348 340 340 339 339 339 339 340 335 329 323 316 313 310 303 300 297 292 286 285 285 286 288 nan 290 289 nan nan nan nan nan nan nan nan nan nan nan nan nan 274
349 347 347 356 355 359 5 19 28 23 11 16 40 55 46 42 31 26 30 29 24 21 19 15 19 12 1 4 4 359 353 351 344 352 358 355 350 345 348 346 358 359 2 4 358 350 350 343 340 340 339 339 339 339 338 335 331 327 324 314 312 310 309 308 303 nan nan 292 nan nan nan nan 286 nan nan nan nan nan nan nan nan nan 273 272 nan
329 333 332 347 348 355 6 24 35 27 6 16 38 52 41 41 36 33 31 27 14 14 14 11 11 10 5 355 353 349 347 345 348 347 nan 349 352 347 352 355 2 359 355 1 2 358 350 342 341 340 337 334 333 334 337 339 339 338 331 329 333 328 322 319 317 312 nan nan 296 293 nan nan nan nan nan nan nan nan nan 271 nan 272 272 270 nan
313 317 334 347 349 360 6 23 30 15 359 4 24 37 38 40 37 32 30 22 12 10 12 12 6 5 6 3 2 1 356 nan 353 nan nan 347 nan nan nan nan nan 356 349 353 353 355 350 347 348 344 336 335 331 331 334 338 338 340 338 344 346 346 340 335 330 325 317 311 307 301 nan nan nan nan nan nan nan nan nan nan nan nan nan nan nan
298 306 326 342 351 354 359 10 4 358 357 357 16 30 43 35 30 28 26 16 12 11 18 19 18 13 19 15 16 16 5 nan nan 351 353 357 nan 351 nan 325 339 353 333 338 346 352 351 350 350 346 341 337 335 334 334 338 339 336 346 349 352 352 351 350 345 340 333 325 317 312 306 nan nan nan nan nan nan nan nan nan nan nan nan nan nan
297 311 325 336 338 344 342 344 339 347 354 357 12 28 24 30 26 21 19 12 13 14 17 25 27 27 23 22 20 18 12 7 nan nan nan 345 nan nan nan nan nan 338 335 nan nan nan nan nan 344 342 341 338 337 337 339 341 339 335 345 344 348 351 350 349 346 343 340 335 328 320 312 306 298 291 285 281 nan nan nan nan nan nan nan nan nan
301 312 314 323 326 336 346 348 344 346 352 1 6 1 11 28 14 18 19 17 14 13 19 26 27 28 25 19 19 16 16 6 nan nan nan nan nan nan 332 nan nan nan 325 334 335 nan nan nan nan 335 336 339 341 339 339 340 339 334 341 343 341 345 347 345 343 340 337 334 328 321 314 308 302 295 289 283 278 274 271 269 266 263 260 259 259
297 300 306 313 319 327 342 340 335 339 345 344 343 346 360 17 19 17 23 13 11 12 16 23 22 21 16 12 11 11 6 0 nan nan nan nan nan nan nan 337 nan nan nan 336 336 345 nan 330 nan nan 333 336 339 340 341 341 340 331 332 335 337 338 340 339 338 335 332 328 322 316 311 306 301 297 293 290 284 279 275 271 267 264 260 258 258
283 287 298 304 310 322 331 342 338 339 342 342 339 340 349 10 18 11 21 7 4 8 13 16 18 14 12 3 356 nan 355 358 357 357 357 nan 354 346 345 nan nan nan nan nan nan 340 339 335 325 325 326 331 334 338 337 339 337 329 334 333 331 331 334 335 333 330 326 320 316 312 308 302 298 293 291 290 287 285 282 278 273 267 261 257 255
276 279 288 296 304 316 324 334 338 336 339 332 329 333 341 349 352 2 17 8 356 4 11 9 11 9 3 358 355 354 350 347 351 351 346 342 345 346 nan nan nan nan nan nan nan nan 328 nan nan 315 319 326 329 329 330 331 325 326 327 328 329 329 326 329 nan 323 319 314 nan nan nan nan 295 291 288 286 284 283 282 280 277 272 267 263 259
277 276 283 292 298 308 312 321 327 333 334 328 322 326 329 325 345 355 7 356 352 1 5 5 3 359 358 354 352 352 347 347 351 351 345 343 340 342 345 348 347 nan nan nan nan 334 nan 328 nan 321 322 326 326 325 325 324 317 328 325 326 326 325 320 nan nan nan nan nan nan nan nan nan nan nan nan 286 284 283 281 280 279 277 272 269 263
280 279 281 286 291 299 306 316 324 332 326 320 313 314 318 308 327 340 347 347 357 2 359 357 358 355 356 358 353 353 348 352 351 346 342 341 341 339 338 337 340 nan 347 343 nan 334 nan 334 330 nan 327 328 327 326 325 324 322 325 325 324 325 318 nan 323 323 nan nan nan nan nan nan nan nan nan nan nan nan 283 281 279 279 275 272 270 267
281 284 283 287 290 297 303 314 321 323 322 312 306 311 306 304 313 326 330 341 359 2 358 352 351 352 356 359 355 354 351 353 352 347 342 340 341 341 337 334 336 340 341 342 346 nan 337 nan 330 328 333 330 329 330 330 325 319 325 323 322 319 318 322 318 320 318 316 nan nan nan nan nan nan nan nan nan nan 286 281 276 274 273 270 267 266
281 284 285 287 288 293 302 308 316 314 312 305 298 302 298 297 303 312 319 336 353 353 349 348 349 350 355 357 356 356 353 355 352 350 347 342 343 343 339 336 336 335 339 340 345 346 334 329 333 333 326 329 331 332 331 326 323 322 323 321 319 317 315 314 312 314 nan nan nan nan nan nan nan nan nan nan nan 291 287 282 277 273 nan 269 267
280 283 285 282 284 290 297 304 308 311 308 304 301 295 290 295 304 294 315 334 343 347 343 346 345 346 348 352 355 354 354 358 355 352 349 348 345 345 342 342 340 337 338 339 342 342 340 327 332 332 334 330 330 327 327 325 324 321 321 318 316 314 313 313 313 311 315 316 315 nan nan nan nan nan nan nan nan nan nan nan nan nan nan nan nan
278 280 280 282 282 287 291 295 301 303 305 302 298 288 288 295 301 301 314 333 338 340 342 343 342 342 344 348 353 352 350 356 355 352 349 348 346 346 344 343 345 342 338 339 339 340 339 334 329 332 331 329 331 328 326 325 324 321 320 319 317 315 314 314 314 313 316 319 319 317 315 nan nan nan nan nan nan nan nan nan nan nan nan nan nan
280 279 279 282 281 285 289 293 299 301 300 294 287 283 288 294 297 299 308 324 329 335 340 338 339 339 344 346 351 351 350 353 353 350 347 345 344 343 344 344 346 347 340 337 339 339 335 337 330 334 331 331 330 330 326 325 326 325 323 319 317 316 315 316 317 317 314 316 318 318 316 nan nan nan nan nan nan nan nan nan nan nan nan nan nan
283 280 278 279 281 285 287 292 295 297 295 290 284 281 281 287 294 293 302 315 323 331 335 334 335 337 342 347 347 349 349 351 351 351 347 346 346 344 345 341 342 343 337 334 336 336 337 337 333 329 328 329 328 326 326 328 328 327 324 320 317 316 317 317 317 315 316 320 322 nan nan nan nan nan nan nan nan nan nan nan nan nan nan nan nan
283 283 283 279 280 287 287 288 288 291 289 285 282 280 283 288 287 289 293 307 318 325 330 329 330 335 341 345 346 348 350 349 352 353 350 350 346 345 343 337 336 336 336 335 334 336 336 337 333 329 325 328 327 327 328 328 328 327 323 321 320 318 317 318 316 314 313 313 314 314 315 316 316 nan nan nan nan nan nan nan nan nan nan nan nan
294 288 287 286 280 282 283 282 285 286 287 284 278 276 278 284 288 289 293 305 313 317 323 327 330 333 338 339 343 348 350 348 351 352 348 347 345 343 336 334 332 333 335 335 334 335 335 334 330 327 326 325 325 326 325 324 325 324 322 321 320 318 318 317 316 314 314 315 316 317 315 308 nan nan 304 nan nan nan nan nan nan nan nan nan nan
335 319 307 296 284 278 277 278 278 279 283 283 280 277 277 282 281 283 292 300 310 313 317 323 327 330 333 337 342 346 348 345 346 345 338 340 341 338 331 331 332 333 334 334 335 335 334 331 329 327 326 324 324 325 324 325 326 325 321 319 319 317 317 317 317 315 314 316 318 318 318 317 318 318 nan nan nan nan nan nan nan nan nan nan nan
357 357 345 326 306 293 283 275 275 278 284 286 279 277 277 281 277 280 289 298 302 306 312 320 322 324 327 333 340 345 345 346 348 342 339 340 340 338 333 330 330 330 333 333 333 333 331 329 327 325 325 325 326 328 328 327 326 322 318 319 320 319 318 318 317 317 317 319 320 320 318 314 311 308 306 305 303 304 nan nan nan nan nan nan nan
356 355 356 353 345 324 303 287 278 278 283 281 284 293 286 275 275 271 278 287 295 300 308 313 316 320 326 331 336 345 344 348 347 346 343 343 345 340 330 327 327 327 331 333 333 331 330 328 328 327 327 328 328 328 327 324 321 319 319 320 320 318 319 319 320 318 316 319 319 319 316 311 309 307 305 302 299 299 nan nan nan nan nan nan nan
358 351 350 354 350 337 325 306 296 286 283 280 292 290 295 291 274 273 279 283 288 297 305 309 312 316 322 329 333 338 342 340 341 342 342 343 344 343 337 327 324 329 331 333 334 331 328 327 325 326 327 328 327 323 323 322 321 320 319 319 319 319 319 320 321 320 318 317 318 318 315 309 307 307 306 303 nan nan nan nan nan nan nan nan nan
352 354 356 349 340 336 325 321 313 298 286 285 288 293 293 293 283 272 274 278 283 293 301 306 307 310 315 320 328 330 332 338 338 337 340 342 343 343 339 333 331 336 338 336 332 329 328 327 326 327 328 327 324 322 322 321 320 319 319 319 319 319 321 323 324 322 316 316 316 315 316 312 310 311 312 309 307 nan nan nan nan nan nan nan nan
340 352 359 350 343 336 331 328 324 309 288 285 289 292 291 291 291 280 269 277 283 289 295 301 303 305 305 312 320 323 323 328 329 331 333 337 342 343 338 334 334 336 339 340 334 329 325 326 328 327 327 324 323 322 320 318 317 320 320 321 321 322 323 325 325 321 317 314 316 318 318 313 313 nan nan nan 309 307 nan nan nan nan nan nan nan
333 344 353 354 346 343 343 343 327 308 298 285 291 289 287 288 288 282 269 276 280 284 291 295 296 300 303 307 313 317 319 321 326 328 328 333 333 333 332 331 333 335 336 333 325 319 322 325 326 326 320 319 320 319 317 318 320 321 321 322 322 324 325 325 321 321 319 318 320 nan nan nan nan nan nan nan nan nan nan nan nan nan nan nan nan
328 341 340 344 351 355 356 343 331 325 300 290 289 289 285 286 287 282 272 272 273 278 283 289 292 295 300 304 311 312 313 316 318 322 326 330 330 328 329 332 334 334 331 328 326 324 322 323 324 322 318 318 319 318 318 319 321 323 323 323 322 323 323 323 nan 324 322 320 321 nan nan nan nan nan nan nan nan nan nan nan nan nan nan nan nan
312 319 315 326 341 348 349 348 348 344 313 298 293 291 288 283 284 273 275 276 277 276 280 285 287 290 295 301 305 307 308 313 313 316 321 325 327 327 326 331 333 331 329 316 315 316 314 319 318 nan nan 312 311 316 316 319 323 nan nan nan nan nan nan nan nan nan nan nan nan nan nan nan nan nan nan nan nan nan nan nan nan nan nan nan nan
298 304 315 320 321 322 333 339 344 344 325 300 299 294 289 287 278 272 276 275 279 282 279 282 285 287 292 299 302 301 305 307 307 314 322 323 325 326 327 328 330 330 326 311 302 nan nan nan nan nan nan nan nan nan nan nan 319 nan nan nan nan nan nan nan nan nan nan nan nan nan nan nan nan nan nan nan nan nan nan nan nan nan nan nan nan
292 298 292 294 306 312 324 332 327 334 337 307 302 295 292 289 285 277 274 277 283 282 283 285 282 283 289 300 302 301 301 301 303 312 319 321 322 324 324 325 327 328 323 315 312 307 nan nan nan nan nan nan nan nan nan nan nan nan nan nan nan nan nan nan nan nan nan nan nan nan nan nan nan nan nan nan nan nan nan nan nan nan nan nan nan
290 285 284 284 285 292 299 310 318 328 318 301 303 299 296 291 285 274 276 278 285 284 284 283 283 282 282 289 303 300 299 297 303 311 317 318 320 319 320 322 325 327 324 318 315 nan nan nan nan nan nan nan nan nan nan nan nan nan nan nan nan nan nan nan nan nan nan nan nan nan nan nan nan nan nan nan nan nan nan nan nan nan nan nan nan